Flag for Germany Weather past 2 weeks in Korschenbroich, North Rhine-Westphalia, Germany

Now
48 °F

Light rain. Partly cloudy.


Feels Like: 43 °F
Forecast: 39 / 45 °F
Wind: 13 mph from Northwest

Location: Monchengladbach Airport

Current Time: Dec 19, 2014 at 3:46:58 PM

Latest Report: Dec 19, 2014 at 2:50 PM


Visibility: N/A

Pressure: 29.89 "Hg

Humidity: 94%

Dew point: 46 °F

Location of KorschenbroichLocation

Historic Weather in Korschenbroich — Graph

°F

Korschenbroich temperature yesterday

Maximum temperature yesterday: 55 °F (at 12:20 PM)
Minimum temperature yesterday: 52 °F (at 7:50 AM)
Average temperature yesterday: 54 °F

Past Weeks' High & Low Weather Summary

 TemperatureHumidityPressure
High55 °F (Dec 18, 12:20 PM)100% (Dec 6, 8:20 AM)30.39 "Hg (Dec 6, 8:20 AM)
Low30 °F (Dec 14, 7:50 AM)66% (Dec 7, 12:50 PM)29.42 "Hg (Dec 12, 12:50 PM)
Average43 °F88%29.94 "Hg
* Reported Dec 4 2:20 PM — Dec 19 2:50 PM, Korschenbroich, Weather by CustomWeather, © 2014

Note: Actual official high and low records may vary slightly from our data, if they occured in-between our weather recording intervals... More about our weather records

Advertising

Korschenbroich weather history for previous 24 hours

 ConditionsComfort  
Time TempWeatherWind HumidityBarometerVisibility
2:50 PM
Dec 19
48 °FLight rain. Partly cloudy.13 mph94%29.89 "HgN/A
2:20 PM48 °FLight rain. Partly cloudy.18 mph94%29.86 "Hg5 mi
1:50 PM50 °FLight rain. Partly cloudy.10 mph94%29.86 "HgN/A
1:20 PM52 °FLight rain. Fog.12 mph100%29.83 "Hg2 mi
12:50 PM52 °FLight rain. Fog.15 mph94%29.83 "Hg3 mi
12:20 PM52 °FLight rain. Passing clouds.17 mph94%29.83 "Hg5 mi
11:50 AM52 °FLight rain. Passing clouds.15 mph94%29.83 "Hg6 mi
11:20 AM52 °FLight rain. Fog.16 mph94%29.83 "Hg3 mi
10:50 AM52 °FLight rain. Fog.18 mph94%29.83 "Hg3 mi
10:20 AM52 °FLight rain. Passing clouds.18 mph94%29.83 "Hg4 mi
9:50 AM52 °FLight rain. Passing clouds.18 mph94%29.83 "Hg4 mi
9:20 AM52 °FLight rain. Passing clouds.16 mph94%29.83 "Hg4 mi
8:50 AM52 °FLight rain. Passing clouds.18 mph94%29.83 "Hg3 mi
8:20 AM52 °FLight rain. Passing clouds.17 mph94%29.83 "Hg4 mi
7:50 AM52 °FLight rain. Passing clouds.21 mph94%29.83 "Hg4 mi
7:50 PM
Dec 18
54 °FPassing clouds.16 mph88%29.89 "HgN/A
7:20 PM55 °FPassing clouds.16 mph82%29.89 "HgN/A
6:50 PM55 °FPassing clouds.17 mph82%29.89 "HgN/A
6:20 PM55 °FPassing clouds.18 mph82%29.86 "HgN/A
5:50 PM55 °FPassing clouds.16 mph88%29.86 "HgN/A
5:20 PM55 °FPassing clouds.16 mph94%29.86 "Hg6 mi
4:50 PM55 °FPassing clouds.14 mph94%29.86 "HgN/A
4:20 PM55 °FPassing clouds.13 mph94%29.86 "HgN/A
3:50 PM54 °FPassing clouds.12 mph100%29.83 "Hg3 mi
3:20 PM54 °FPassing clouds.12 mph100%29.83 "Hg2 mi
Weather by CustomWeather, © 2014

See weather overviewHow to use our weather pages